Weather in Kokoshkino

Russia / Moscow Oblast     55°35′53″N   37°10′18″E
В апреле 2022 года жителям России запретили посещать сайт meteo.paraplan.net по решению Генеральной прокуратуры. Аудитория сайта уменьшилась в 10 раз. Владельцы сайта не видят смысла в поддержке погодного сервера в таких условиях. Сайт будет закрыт в октябре.
temp.,
°C
wind,
m/s
gust,
m/s
humid.,
%
clouds,
%
prec.,
mm/h
press.,
hPa
HPBL,
m
5 october, wed
wed500:00+6s4890100 0.2 1010597
03:00+6ssw3788100 0.4 1010790
06:00+6s3694100 0.3 1010871
09:00+6s2494100 0.5 1011284
12:00+6w3691100 0.8 1013642
15:00+7w4683100 1.1 1014719
18:00+6w3788100 0.1 1016521
21:00+5w3791100 0.1 1017353
6 october, thu
thu600:00+6w2793100 0.1 1018262
03:00+6w279694 0.1 1018255
06:00+4wsw259739 0.0 1019103
09:00+6sw2595100 0.0 1019219
12:00+10sw358649 0.0 1018363
15:00+12sw378394 0.0 1017605
18:00+10sw4109325 0.0 1017421
21:00+9sw413956 0.0 1016436
7 october, fri
fri700:00+9wsw513957 0.0 1015417
03:00+11w5139285 0.0 1016760
06:00+9wnw5139137 0.0 1018650
09:00+10wnw61279100 0.0 10201164
12:00+10w51175100 0.0 10211347
15:00+12w610670 0.0 10211139
18:00+10w411770 0.0 1022405
21:00+8wsw411890 0.0 1024307
8 october, sat
sat800:00+7wsw39955 0.0 1024198
03:00+6wsw38965 0.0 1024164
06:00+5sw389637 0.0 1024179
09:00+8sw488534 0.0 1024286
12:00+13sw576833 0.0 1023698
15:00+14sw476139 0.0 1021879
18:00+11ssw41177100 0.0 1020416
21:00+10sw51379100 0.0 1019510
9 october, sun
sun900:00+9sw51481100 0.0 1018500
03:00+8ssw51484100 0.0 1017453
06:00+8ssw51382100 0.0 1016460
09:00+9sw51178100 0.0 1015538
12:00+10wsw4779100 0.0 1015492
15:00+9wsw3894100 1.4 1016428
18:00+9wsw3895100 0.9 1017403
21:00+8wnw399265 1.0 1018342